Weather in Belidji

Russia / Republic of Dagestan     41°52′30″N   48°23′26″E
temp.,
°C
wind,
m/s
gust,
m/s
humid.,
%
clouds,
%
prec.,
mm/h
press.,
hPa
HPBL,
m
11 may, tue
tue1100:00+14sw116316 0.0 102131
03:00+13ssw22585 0.0 102078
06:00+12s56545 0.0 1020203
09:00+13se59635 0.0 1019564
12:00+13ese79705 0.0 1018580
15:00+13ese68730 0.0 1017539
18:00+13se45770 0.0 1016389
21:00+13ene00780 0.0 101683
12 may, wed
wed1200:00+13nnw33770 0.0 1014228
03:00+13nnw55800 0.0 1013360
06:00+13nw77790 0.0 1014394
09:00+13nnw78810 0.0 1015457
12:00+13nnw78860 0.0 1015298
15:00+13n68880 0.0 1015250
18:00+14nnw57880 0.0 1015200
21:00+14nw45830 0.0 1015117
13 may, thu
thu1300:00+14wnw22820 0.0 101534
03:00+14se11810 0.0 101426
06:00+14s44830 0.0 1015109
09:00+14ese56850 0.0 1015114
12:00+14se45850 0.0 1015100
15:00+15ese33820 0.0 101470
18:00+15se22802 0.0 101444
21:00+15se11810 0.0 101510
14 may, fri
fri1400:00+15se22780 0.0 101411
03:00+15sse11811 0.0 101410
06:00+15sse22810 0.0 101414
09:00+16se44805 0.0 101447
12:00+15ese448741 0.0 101459
15:00+15s128728 0.0 101457
18:00+16e118099 0.0 101421
21:00+17e227256 0.0 101411
15 may, sat
sat1500:00+16se3376100 0.0 101324
03:00+16se447842 0.0 101326
06:00+16se337499 0.0 101317
09:00+16se57745 0.0 101375
12:00+16ese34740 0.0 101354
15:00+16w11690 0.0 101322
18:00+17ene22661 0.0 101313
21:00+17ese11671 0.0 101311